Regional Weather Roundup
Issued by NWS

Home | Current Version | Previous Version | Graphics & Text | Print | Product List | Glossary Off
Versions: 1 2 3 4 5 6 7 8 9 10 11 12 13 14 15 16 17 18 19 20 21 22 23 24 25 26 27 28 29 30 31 32 33 34 35 36 37 38 39 40 41 42 43 44 45 46 47 48 49 50

000
ASUS43 KMKX 232310
RWRWI

WISCONSIN REGIONAL WEATHER ROUNDUP
NATIONAL WEATHER SERVICE MILWAUKEE/SULLIVAN WI
600 PM CDT SAT MAY 23 2015

NOTE: "FAIR" INDICATES FEW OR NO CLOUDS BELOW 12,000 FEET WITH NO
SIGNIFICANT WEATHER AND/OR OBSTRUCTIONS TO VISIBILITY.

WIZ001-002-006>008-014>016-023>028-240000-
NORTHWEST WISCONSIN

CITY           SKY/WX    TMP DP  RH WIND       PRES   REMARKS
SUPERIOR ARPT  PTSUNNY   75  44  32 SW17      30.14R
ASHLAND        MOSUNNY   77  41  27 SW9G20    30.14R
HAYWARD        CLOUDY    69  41  36 SW10      30.20S
SIREN          CLOUDY    68  42  38 CALM      30.21F
CUMBERLAND     CLOUDY    63  50  63 N5        30.21S
RICE LAKE      CLOUDY    66  42  42 N6        30.21F
CHETEK         CLOUDY    69  44  41 CALM      30.19F
LADYSMITH      CLOUDY    68  45  42 N5        30.22S
EAU CLAIRE     LGT RAIN  74  41  30 SW5       30.16F
MENOMONIE      LGT RAIN  74  40  28 CALM      30.18F
NEW RICHMOND   CLOUDY    69  42  37 NE13      30.19F
OSCEOLA        CLOUDY    63  56  77 N6        30.21F
$$

WIZ003>005-009-010-017-018-240000-
NORTH CENTRAL WISCONSIN

CITY           SKY/WX    TMP DP  RH WIND       PRES   REMARKS
MANITOWISH WTR PTSUNNY   73  36  26 W9        30.17S
ARBOR VITAE    PTSUNNY   74  34  22 W9G16     30.18S
WOODRUFF       PTSUNNY   74  34  22 W9G16     30.18S
RHINELANDER    CLOUDY    72  38  29 SW12      30.19S
EAGLE RIVER    PTSUNNY   73  26  17 SW13      30.17S
LAND O LAKES   PTSUNNY   76  23  14 SW7       30.18S
PHILLIPS       CLOUDY    69  38  32 SW10G21   30.20S
TOMAHAWK       PTSUNNY   71  37  28 W3        30.20S
MEDFORD        CLOUDY    70  43  38 W6        30.21S
MERRILL        PTSUNNY   72  42  33 W8        30.20S
$$

WIZ029-030-035-036-043>047-240000-
CENTRAL WISCONSIN

CITY           SKY/WX    TMP DP  RH WIND       PRES   REMARKS
WAUSAU         CLOUDY    73  40  30 W7        30.17F
MOSINEE        PTSUNNY   73  39  29 SW12      30.19
MARSHFIELD     CLOUDY    73  43  33 NW7       30.19F
STEVENS POINT  PTSUNNY   74  37  26 W7        30.19S
WAUPACA        MOSUNNY   78  36  21 SW8       30.18F
WAUTOMA        NOT AVBL
WISC RAPIDS    PTSUNNY   76  34  21 S9        30.19F
CAMP DOUGLAS   NOT AVBL
$$

WIZ011>013-019>022-031-037>040-048>050-240000-
NORTHEAST WISCONSIN

CITY           SKY/WX    TMP DP  RH WIND       PRES   REMARKS
ANTIGO         PTSUNNY   72  42  33 W3        30.20S
SHAWANO        MOSUNNY   78  38  24 W3        30.17F
OCONTO         MOSUNNY   78  40  25 SW9       30.17S
STURGEON BAY   MOSUNNY   72  39  30 S17G24    30.21F
GREEN BAY      MOSUNNY   78  38  23 S9        30.18F
MANITOWOC      NOT AVBL
APPLETON       PTSUNNY   75  36  23 SW6       30.19F
CLINTONVILLE   MOSUNNY   77  34  20 SW9       30.17F
OSHKOSH        PTSUNNY   77  40  26 VRB3      30.18F
$$

WIZ032>034-041-042-053>061-240000-
SOUTHWEST WISCONSIN

CITY           SKY/WX    TMP DP  RH WIND       PRES   REMARKS
LA CROSSE      PTSUNNY   79  44  28 SE8       30.14F
SPARTA         PTSUNNY   75  40  28 S3        30.18F
VIROQUA        PTSUNNY   76  41  28 S8        30.18F
BOSCOBEL       PTSUNNY   79  44  28 S8        30.16F
PRAIRIE DU CHI CLOUDY    77  39  25 S5        30.15F
PLATTEVILLE    CLOUDY    76  42  29 S8        30.18F
$$

WIZ056-057-062-063-064-067-068-240000-
SOUTH CENTRAL WISCONSIN

CITY           SKY/WX    TMP DP  RH WIND       PRES   REMARKS
REEDSBURG      PTSUNNY   76  42  29 S6        30.17F
BARABOO/DELLS  PTSUNNY   77  37  23 SW7       30.18F
LONE ROCK      NOT AVBL
MINERAL POINT  PTSUNNY   75  36  23 S6        30.20S
MADISON        PTSUNNY   76  39  26 SW6       30.18F
MIDDLETON      SUNNY     79  29  16 S5        30.19F
WATERTOWN      MOSUNNY   77  37  23 S5        30.19F
MONROE         PTSUNNY   77  43  29 SW6       30.19F
JANESVILLE     MOSUNNY   79  37  22 SW9       30.18
$$

WIZ051-052-058>065-066-070>072-240000-
SOUTHEAST WISCONSIN

CITY           SKY/WX    TMP DP  RH WIND       PRES   REMARKS
MILWAUKEE      MOSUNNY   67  38  34 SE15      30.21F
WAUKESHA       MOSUNNY   75  43  31 SE9       30.21F
MILWAUKEE/TIMM SUNNY     73  36  25 SE10      30.21F
RACINE         SUNNY     66  38  35 SE12      30.23F
BURLINGTON     SUNNY     78  35  21 S12       30.20S
KENOSHA        SUNNY     71  44  37 SE10      30.21F
FOND DU LAC    CLOUDY    78  37  22 S9        30.19F
SHEBOYGAN      MOSUNNY   70  40  33 S12       30.21F
WEST BEND      MOSUNNY   73  36  25 SE12      30.21F
JUNEAU         MOSUNNY   76  40  28 S8        30.20F
$$

LSZ147-162-240000-
LAKE SUPERIOR

STATION/POSITION TIME  TEMP    WIND        PRES    WAVE
                       AIR SEA DIR/SP/G            HT/PER
                 (UTC) (F)     (DEG/KT/KT) (MB)    (FT/S)
W MID LAKE BUOY  2150   51 37  230/ 12/ 12   N/A     1/ 4
DEVILS ISLAND    2200   70     220/  6/  7   N/A
PORT WING        2240   69     280/  4/  6   N/A
SAXON HARBOR     2200   71      80/  2/  6   N/A
$$

LMZ867-665-643>646-240000-
LAKE MICHIGAN

STATION/POSITION TIME  TEMP    WIND        PRES    WAVE
                       AIR SEA DIR/SP/G            HT/PER
                 (UTC) (F)     (DEG/KT/KT) (MB)    (FT/S)
CHAMBERS ISLAND  2200   71     140/  7/ 12   N/A
N MID LAKE BUOY  2150   42 36  200/ 14/ 14   N/A     2/ 4
NORTHPORT PIER   2200   66     190/  8/ 17   N/A
SISTER BAY       2217   71     180/ 14/ 18   N/A
KEWAUNEE LAKESHO 2200   51     180/ 12/ 14   N/A
SHEBOYGAN LAKESH 2200   54     170/ 17/ 18   N/A
PORT WASHINGTON  2140   57     190/  4/  7   N/A
ATWATER BUOY     2200   50 46  160/  4/  6   N/A
MILWAUKEE LAKESH 2200   53     110/  2/  3   N/A
S MID LAKE BUOY  2150   51 38   90/  8/  8   N/A     0
KENOSHA   LAKESH 2200   56     180/  5/  8   N/A
$$

TC  - TEMPERATURE IN CELSIUS
VSB - VISIBILITY IN STATUTE MILES
WCI - WIND CHILL INDEX
HX  - HEAT INDEX




USA.gov is the U.S. government's official web portal to all federal, state and local government web resources and services.